This is the latest recevied weather packets stored in our database for station/object EMGATE. If no packets are shown the sender has not sent any weather packets the latest 10 day(s).
| Time | Temp. | Humidity | Pressure | Rain* | Wind** | Luminosity | Snow |
|---|---|---|---|---|---|---|---|
| 1777105446 | 0° C | 74% | 1019.7 hPa | 0 mm | - | - | - |
| 1777104546 | 0.56° C | 73% | 1019.5 hPa | 0 mm | - | - | - |
| 1777103646 | 1.11° C | 73% | 1019.5 hPa | 0 mm | - | - | - |
| 1777102794 | 1.67° C | 72% | 1019.1 hPa | 0 mm | - | - | - |
| 1777102746 | 1.67° C | 72% | 1019.1 hPa | 0 mm | - | - | - |
| 1777101846 | 1.67° C | 72% | 1019.1 hPa | 0 mm | - | - | - |
| 1777100946 | 2.22° C | 72% | 1019.1 hPa | 0 mm | - | - | - |
| 1777100046 | 2.22° C | 72% | 1019.1 hPa | 0 mm | - | - | - |
| 1777099146 | 2.22° C | 71% | 1019 hPa | 0 mm | - | - | - |
| 1777098246 | 2.78° C | 71% | 1018.9 hPa | 0 mm | - | - | - |
| 1777097346 | 3.33° C | 70% | 1018.9 hPa | 0 mm | - | - | - |
| 1777096446 | 3.33° C | 69% | 1018.9 hPa | 0 mm | - | - | - |
| 1777095546 | 3.33° C | 68% | 1018.9 hPa | 0 mm | - | - | - |
| 1777094646 | 3.33° C | 66% | 1018.7 hPa | 0 mm | - | - | - |
| 1777093746 | 2.78° C | 66% | 1018.7 hPa | 0 mm | - | - | - |
| 1777092846 | 2.78° C | 67% | 1018.6 hPa | 0 mm | - | - | - |
| 1777091946 | 2.78° C | 63% | 1018.6 hPa | 0 mm | - | - | - |
| 1777091046 | 2.78° C | 63% | 1018.4 hPa | 0 mm | - | - | - |
| 1777090146 | 2.78° C | 61% | 1018.3 hPa | 0 mm | - | - | - |
| 1777089246 | 2.78° C | 59% | 1018.4 hPa | 0 mm | - | - | - |
| 1777088346 | 3.33° C | 59% | 1018.4 hPa | 0 mm | - | - | - |
| 1777087446 | 3.33° C | 58% | 1018.4 hPa | 0 mm | - | - | - |
| 1777086546 | 3.89° C | 59% | 1018.5 hPa | 0 mm | - | - | - |
| 1777085646 | 3.33° C | 59% | 1018.6 hPa | 0 mm | - | - | - |
| 1777084746 | 3.33° C | 60% | 1018.7 hPa | 0 mm | - | - | - |
* Rain latest hour (hover to see other rain measurements)
** Current wind speed in m/s (hover to see current wind gust speed)